SCP
0 0 0 0 1 0 0 0 0 0 0 0 0 0 0 0 0 0 0 0 0 0 0 0 0 0 0 0 0 0 0 0 0 0 0 0 0 0 0 0 0 0 0
0 0 0 0 1 0 0 0 0 0 0 0 0 0 0 0 0 0 0 0 0 0 0 0 0 0 0 0 0 0 0 0 0 0 0 0 0 0 0 0 0 0 0
0 0 0 0 0 0 0 0 0 0 0 0 0 0 0 0 0 0 0 0 0 0 0 0 0 0 0 0 0 0 0 0 0 0 0 0 0 0 0 0 0 0 0
0 0 0 0 0 0 0 0 0 0 0 0 0 0 0 0 0 0 0 0 0 0 0 0 0 0 0 0 0 0 0 0 0 0 0 0 0 0 0 0 0 0 0
0 0 0 0 0 0 0 0 0 0 0 0 0 0 0 0 0 0 0 0 0 0 0 0 0 0 0 0 0 0 0 0 0 0 0 0 0 0 0 0 0 0 0
0 0 0 0 0 0 0 0 0 0 0 0 0 0 0 0 0 0 0 0 0 0 0 0 0 0 0 0 0 0 0 0 0 0 0 0 0 0 0 0 0 0 0
0 0 0 0 0 0 0 0 0 0 0 0 0 0 0 0 0 0 0 0 0 0 0 0 0 0 0 0 0 0 0 0 0 0 0 0 0 0 0 0 0 0 0
0 0 0 0 0 0 0 0 0 0 0 0 0 0 0 0 0 0 0 0 0 0 0 0 0 0 0 0 0 0 0 0 0 0 0 0 0 0 0 0 0 0 0
0 0 0 0 0 0 0 0 0 0 0 0 0 0 0 0 0 0 0 0 0 0 0 0 0 0 0 0 0 0 0 0 0 0 0 0 0 0 0 0 0 0 0
0 0 0 0 0 0 0 0 0 0 0 0 0 0 0 0 0 0 0 0 0 0 0 0 0 0 0 0 0 0 0 0 0 0 0 0 0 0 0 0 0 0 0
0 0 0 0 0 0 0 0 0 0 0 0 0 0 0 0 0 0 0 0 0 0 0 0 0 0 0 0 0 0 0 0 0 0 0 0 0 0 0 0 0 0 0
0 0 0 0 0 0 0 0 0 0 0 0 0 0 0 0 0 0 0 0 0 0 0 0 0 0 0 0 0 0 0 0 0 0 0 0 0 0 0 0 0 0 0
0 0 0 0 0 0 0 0 0 0 0 0 0 0 0 0 0 0 0 0 0 0 0 0 0 0 0 0 0 0 0 0 0 0 0 0 0 0 0 0 0 0 0
0 0 0 0 0 0 0 0 0 0 0 0 0 0 0 0 0 0 0 0 0 0 0 0 0 0 0 0 0 0 0 0 0 0 0 0 0 0 0 0 0 0 0
0 0 0 0 0 0 0 0 0 0 0 0 0 0 0 0 0 0 0 0 0 0 0 0 0 0 0 0 0 0 0 0 0 0 0 0 0 0 0 0 0 0 0
0 0 0 0 0 0 0 0 0 0 0 0 0 0 0 0 0 0 0 0 0 0 0 0 0 0 0 0 0 0 0 0 0 0 0 0 0 0 0 0 0 0 0
0 0 0 0 0 0 0 0 0 0 0 0 0 0 0 0 0 0 0 0 0 0 0 0 0 0 0 0 0 0 0 0 0 0 0 0 0 0 0 0 0 0 0
0 0 0 0 0 0 0 0 0 0 0 0 0 0 0 0 0 0 0 0 0 0 0 0 0 0 0 0 0 0 0 0 0 0 0 0 0 0 0 0 0 0 0
0 0 0 0 0 0 0 0 0 0 0 0 0 0 0 0 0 0 0 0 0 0 0 0 0 0 0 0 0 0 0 0 0 0 0 0 0 0 0 0 0 0 0
0 0 0 0 0 0 0 0 0 0 0 0 0 0 0 0 0 0 0 0 0 0 0 0 0 0 0 0 0 0 0 0 0 0 0 0 0 0 0 0 0 0 0
0 0 0 0 0 0 0 0 0 0 0 0 0 0 0 0 0 0 0 0 0 0 0 0 0 0 0 0 0 0 0 0 0 0 0 0 0 0 0 0 0 0 0
0 0 0 0 0 0 0 0 0 0 0 0 0 0 0 0 0 0 0 0 0 0 0 0 0 0 0 0 0 0 0 0 0 0 0 0 0 0 0 0 0 0 0
0 0 0 0 0 0 0 0 0 0 0 0 0 0 0 0 0 0 0 0 0 0 0 0 0 0 0 0 0 0 0 0 0 0 0 0 0 0 0 0 0 0 0
0 0 0 0 0 0 0 0 0 0 0 0 0 0 0 0 0 0 0 0 0 0 0 0 0 0 0 0 0 0 0 0 0 0 0 0 0 0 0 0 0 0 0
0 0 0 0 0 0 0 0 0 0 0 0 0 0 0 0 0 0 0 0 0 0 0 0 0 0 0 0 0 0 0 0 0 0 0 0 0 0 0 0 0 0 0
0 0 0 0 0 0 0 0 0 0 0 0 0 0 0 0 0 0 0 0 0 0 0 0 0 0 0 0 0 0 0 0 0 0 0 0 0 0 0 0 0 0 0
Wind_Speed
9 10 11 12 12 11 11 12 11 10 11 12 12 12 12 12 11 11 11 10 11 10 8 9 9 7 5 5 4 4 5 5 6 4 2 2 2 2 2 2 3 3 4
7 8 9 10 10 11 12 11 11 11 11 11 11 11 11 11 11 12 12 11 11 11 10 9 9 6 7 5 5 6 5 6 5 6 3 2 3 2 2 3 3 3 3
6 6 7 8 10 12 12 10 10 11 10 10 11 12 12 12 12 12 12 11 11 11 10 11 9 8 8 6 6 6 5 5 4 4 3 2 2 1 2 2 3 3 4
5 6 8 9 10 11 10 10 10 11 11 11 11 12 11 11 11 11 11 11 10 10 9 9 9 10 10 9 7 7 5 5 4 3 3 2 2 1 1 2 3 3 4
5 7 8 8 7 8 9 9 9 10 10 10 10 10 10 9 10 11 11 10 10 9 8 8 8 10 11 9 6 6 6 5 4 4 3 2 2 1 2 2 3 4 4
6 7 7 6 6 7 8 8 8 9 9 9 10 10 10 9 12 16 12 10 9 9 8 7 7 9 10 11 10 9 9 7 6 4 4 4 4 3 2 2 2 2 4
6 6 6 6 7 7 7 8 9 9 8 9 9 9 10 10 14 15 15 10 9 9 9 8 6 6 8 6 7 8 7 7 7 6 5 5 4 4 3 3 3 3 5
4 5 5 6 6 6 7 8 8 7 8 8 8 9 8 9 13 15 15 10 8 8 8 8 8 7 7 8 6 5 5 4 5 4 5 5 4 4 4 3 3 3 3
5 5 5 6 6 6 7 8 6 7 7 7 7 8 8 7 12 13 13 7 6 7 6 7 8 8 11 11 8 6 5 3 3 4 4 3 3 2 1 1 0 1 3
5 5 4 5 6 7 7 6 5 5 6 6 6 6 7 7 10 13 13 6 6 5 5 6 9 9 11 12 8 7 7 5 4 3 2 1 1 1 1 1 2 2 2
4 3 3 4 5 5 4 4 4 4 5 5 5 5 5 7 9 12 13 7 7 6 5 5 5 11 11 11 9 6 7 5 4 4 2 1 1 1 1 1 2 2 2
3 2 3 3 3 3 4 4 5 5 6 5 5 4 3 4 7 10 12 10 8 7 6 5 6 10 10 10 7 7 7 6 4 3 2 2 2 1 1 1 1 2 3
2 2 2 2 2 3 5 5 5 5 5 5 5 5 4 3 4 8 10 10 9 5 5 8 9 10 9 7 7 8 6 4 4 3 3 2 2 2 1 1 1 1 2
2 2 1 1 2 2 3 4 5 6 5 5 5 5 4 4 4 4 5 6 7 5 5 8 10 9 6 6 6 4 3 3 3 3 2 2 1 1 1 1 1 1 2
2 2 2 1 2 2 3 3 4 5 6 6 6 6 7 6 7 9 7 6 6 6 7 5 4 4 4 3 3 3 3 3 3 2 2 2 1 1 1 1 1 1 1
2 2 2 2 2 2 3 1 1 2 3 4 5 4 4 5 9 10 9 10 10 12 7 5 5 5 5 5 4 3 3 3 3 3 3 2 2 2 1 1 1 1 2
2 2 2 2 2 3 3 3 2 2 4 5 6 6 5 7 9 10 11 11 11 11 5 5 5 5 5 4 4 4 3 3 3 3 3 3 2 2 2 2 2 2 3
2 2 2 2 3 3 3 3 3 4 3 2 3 6 7 8 9 11 12 10 6 5 4 5 5 4 4 4 4 4 3 3 3 3 3 3 2 2 2 2 2 2 3
2 2 2 1 2 2 2 3 3 3 3 3 3 4 7 8 9 10 10 5 5 4 3 4 4 4 4 4 4 4 4 3 3 3 3 3 3 2 2 2 2 4 3
1 2 1 1 1 2 2 3 3 3 3 3 4 4 4 5 5 5 4 3 4 4 4 4 3 4 4 4 4 4 3 3 3 3 3 3 2 2 3 3 3 2 3
1 1 1 1 2 2 3 3 3 4 3 3 3 4 6 5 5 5 4 3 3 4 4 4 3 4 4 4 4 4 4 3 3 3 3 3 3 2 2 2 2 2 3
0 0 0 1 2 2 2 3 3 3 3 3 3 4 6 4 4 4 3 3 3 3 3 4 3 3 3 4 4 4 4 4 4 3 3 3 2 2 2 2 2 2 2
0 1 1 1 2 3 3 3 3 3 3 3 4 4 4 3 3 3 3 3 3 3 3 3 3 3 2 2 3 4 4 4 4 5 4 3 3 3 2 2 2 2 2
1 1 2 2 2 2 3 3 3 3 3 3 3 3 3 3 3 3 3 3 3 3 3 3 3 4 4 2 2 2 3 3 4 4 5 4 3 3 2 2 2 3 3
1 2 2 2 2 2 2 2 3 3 3 3 3 3 3 3 3 3 3 3 3 3 3 2 2 3 4 3 3 3 5 5 5 4 4 4 4 3 3 2 2 2 2
1 2 2 2 2 2 2 2 2 3 3 3 3 3 3 3 3 3 3 3 3 3 3 2 3 3 3 3 3 5 5 5 5 5 4 3 4 3 3 2 2 2 2
Wind_Direction
207 206 204 204 202 199 201 204 202 196 192 193 194 195 196 197 195 198 204 199 203 207 203 205 213 204 203 202 197 200 208 209 244 258 220 219 219 247 278 276 273 278 293
208 204 207 202 196 199 204 204 197 196 195 195 192 193 197 197 196 199 203 202 204 207 206 205 212 201 204 199 198 205 210 207 221 251 244 225 233 243 262 276 285 287 283
204 202 206 203 198 203 205 200 195 195 194 192 190 195 197 197 197 200 202 204 207 208 205 205 206 196 205 203 203 208 210 209 212 230 246 233 242 254 276 279 283 282 289
207 201 210 212 207 204 200 196 195 193 193 194 196 197 197 197 197 199 200 202 205 207 204 204 201 199 204 202 204 208 200 199 205 224 240 244 248 258 254 272 289 277 287
211 212 218 216 207 199 196 195 193 194 196 194 194 196 196 196 198 196 198 200 201 201 200 202 203 201 203 199 197 196 190 194 199 213 230 232 237 240 245 245 273 291 282
218 221 220 209 202 200 199 192 191 195 194 190 195 196 197 201 197 194 193 195 196 195 197 200 201 199 204 206 207 197 189 192 199 202 218 228 238 228 233 249 268 301 292
228 226 216 206 206 205 196 191 194 194 189 193 197 196 200 202 195 193 191 190 193 195 194 192 192 196 193 190 195 191 194 201 198 194 206 219 224 219 218 243 242 245 257
238 233 220 207 208 201 193 197 197 190 191 197 198 198 199 199 190 189 186 188 193 195 194 191 188 188 189 181 173 177 188 200 204 198 201 211 213 209 205 216 235 265 275
249 239 224 207 203 196 196 198 194 188 192 196 193 192 194 195 187 185 179 185 191 195 194 190 186 188 189 178 169 174 178 193 194 193 203 207 212 215 199 125 12 307 289
265 249 228 208 200 200 198 194 189 186 189 185 188 191 191 193 185 181 176 180 185 187 185 189 192 189 185 179 175 176 186 194 173 163 168 169 158 210 228 183 191 231 273
292 275 239 214 207 201 190 181 172 170 171 179 183 188 189 189 183 181 179 182 184 181 181 184 189 186 185 184 181 184 193 172 157 154 155 161 161 181 230 224 205 203 230
296 276 251 222 202 183 173 172 171 171 173 175 173 177 184 182 181 185 185 187 178 175 179 176 178 178 178 179 180 177 168 152 142 150 164 187 199 214 233 243 249 241 234
298 283 270 235 199 185 178 175 173 175 175 176 176 182 185 180 181 182 183 182 179 171 166 167 166 168 166 166 168 164 155 147 151 168 191 210 208 207 216 253 272 278 281
300 292 280 225 201 189 182 181 180 181 179 179 182 183 178 178 178 175 176 175 170 156 144 153 154 153 146 145 147 149 146 157 165 178 187 190 176 184 213 234 258 290 303
296 304 290 252 206 197 191 196 196 200 190 184 187 180 178 190 195 184 172 169 164 155 139 131 134 140 144 143 139 141 149 153 161 162 163 172 186 210 243 245 237 252 265
294 295 272 247 216 199 178 145 121 158 167 174 175 175 188 184 173 176 172 164 158 152 141 151 159 163 167 168 168 169 171 172 172 169 172 183 197 213 242 252 248 248 268
268 269 259 244 220 196 177 167 150 92 110 139 153 158 157 158 161 163 158 154 155 150 144 159 167 172 174 173 175 176 181 177 171 175 182 188 197 209 225 248 263 270 273
279 265 251 234 222 198 179 170 166 163 156 138 143 148 148 151 152 152 149 141 152 155 157 165 170 171 171 172 174 171 167 164 170 179 185 189 193 203 221 239 250 257 272
281 264 250 230 212 186 164 155 153 155 151 141 125 137 145 145 144 147 146 146 160 166 163 163 164 165 168 170 170 169 169 175 179 181 190 191 193 199 221 237 248 271 274
282 267 265 216 166 151 146 148 149 147 147 150 156 152 146 137 141 149 148 142 151 158 157 159 162 165 166 167 167 165 167 173 176 184 190 190 193 201 219 233 240 254 260
295 257 228 161 149 148 145 149 152 149 152 155 156 158 155 148 151 153 154 153 157 158 157 155 156 161 163 163 164 166 171 181 183 185 189 190 192 206 218 227 235 243 257
255 241 203 142 132 133 131 133 134 133 138 141 131 135 145 130 136 143 145 146 149 149 150 150 155 164 170 172 172 173 177 185 188 187 188 188 192 204 213 221 232 243 253
119 142 126 110 118 129 120 123 128 132 138 141 139 136 138 135 136 139 139 137 137 136 137 143 150 156 160 167 172 173 179 189 190 183 181 185 192 198 201 212 226 241 254
135 149 143 131 125 126 126 125 125 128 133 136 137 139 139 138 135 132 132 132 130 130 134 142 153 158 160 160 163 170 176 181 177 177 177 180 187 192 193 202 222 237 248
131 140 138 136 133 129 126 126 126 128 131 133 136 134 131 130 131 130 131 132 133 134 136 139 144 150 157 162 171 181 187 192 195 178 170 173 180 184 188 200 218 235 247
112 128 129 127 130 133 136 135 132 132 134 133 134 138 140 141 141 142 144 142 139 139 139 141 149 158 166 167 174 182 190 191 187 186 170 163 168 180 187 204 219 231 245